| time (UTC) | temp F | wind direction | speed knots | gust knots | rain 1hr in | rain 24hr in | rain mn in | humidity % | barometer mb |
| 20260905223303 | 59 | 295 | 3.5 | 10.4 | 0.00 | 0.15 | 0.00 | 49 | 1023.4 |
| 20260905222306 | 59 | 303 | 3.5 | 7.0 | 0.00 | 0.15 | 0.00 | 49 | 1023.3 |
| 20260905221306 | 59 | 281 | 4.3 | 11.3 | 0.00 | 0.15 | 0.00 | 48 | 1023.3 |
| 20260905220309 | 59 | 306 | 4.3 | 8.7 | 0.00 | 0.15 | 0.00 | 48 | 1023.3 |
| 20260905215309 | 59 | 273 | 3.5 | 8.7 | 0.00 | 0.15 | 0.00 | 47 | 1023.2 |
| 20260905214311 | 59 | 290 | 2.6 | 9.6 | 0.00 | 0.15 | 0.00 | 47 | 1023.3 |
| 20260905213313 | 60 | 299 | 3.5 | 7.0 | 0.00 | 0.15 | 0.00 | 47 | 1023.2 |
| 20260905212315 | 60 | 290 | 2.6 | 6.1 | 0.00 | 0.15 | 0.00 | 46 | 1023.1 |
| 20260905211316 | 61 | 298 | 3.5 | 9.6 | 0.00 | 0.15 | 0.00 | 46 | 1023.0 |
| 20260905210318 | 61 | 288 | 3.5 | 7.8 | 0.00 | 0.15 | 0.00 | 46 | 1022.9 |
| 20260905205320 | 61 | 237 | 1.7 | 8.7 | 0.00 | 0.15 | 0.00 | 46 | 1022.7 |
| 20260905204322 | 61 | 260 | 1.7 | 6.1 | 0.00 | 0.15 | 0.00 | 46 | 1022.7 |
| 20260905203324 | 61 | 261 | 2.6 | 6.1 | 0.00 | 0.15 | 0.00 | 45 | 1022.5 |
| 20260905202325 | 62 | 250 | 1.7 | 8.7 | 0.00 | 0.15 | 0.00 | 45 | 1022.4 |
| 20260905201327 | 62 | 249 | 4.3 | 10.4 | 0.00 | 0.15 | 0.00 | 45 | 1022.3 |
| 20260905195331 | 62 | 261 | 2.6 | 7.0 | 0.00 | 0.15 | 0.00 | 44 | 1022.0 |
| 20260905194333 | 63 | 264 | 1.7 | 6.1 | 0.00 | 0.15 | 0.00 | 44 | 1021.9 |
| 20260905193333 | 63 | 307 | 5.2 | 11.3 | 0.00 | 0.15 | 0.00 | 44 | 1021.8 |
| 20260905192333 | 63 | 300 | 2.6 | 8.7 | 0.00 | 0.15 | 0.00 | 43 | 1021.6 |
| 20260905190336 | 64 | 298 | 3.5 | 9.6 | 0.00 | 0.15 | 0.00 | 43 | 1021.5 |
| 20260905184340 | 64 | 319 | 4.3 | 14.8 | 0.00 | 0.15 | 0.00 | 42 | 1021.2 |
| 20260905182344 | 65 | 309 | 5.2 | 12.2 | 0.00 | 0.15 | 0.00 | 41 | 1021.1 |
| 20260905181345 | 66 | 293 | 6.1 | 12.2 | 0.00 | 0.15 | 0.00 | 40 | 1020.9 |
| 20260905180347 | 66 | 311 | 6.1 | 9.6 | 0.00 | 0.15 | 0.00 | 39 | 1020.8 |
| 20260905175349 | 66 | 302 | 4.3 | 11.3 | 0.00 | 0.15 | 0.00 | 39 | 1020.5 |
| 20260905174351 | 67 | 306 | 5.2 | 11.3 | 0.00 | 0.15 | 0.00 | 38 | 1020.4 |
| 20260905173353 | 68 | 297 | 4.3 | 12.2 | 0.00 | 0.15 | 0.00 | 38 | 1020.2 |
| 20260905172355 | 69 | 283 | 4.3 | 9.6 | 0.00 | 0.15 | 0.00 | 37 | 1020.1 |
| 20260905170357 | 70 | 329 | 4.3 | 11.3 | 0.00 | 0.15 | 0.00 | 36 | 1019.7 |
| 20260905165359 | 71 | 316 | 5.2 | 12.2 | 0.00 | 0.15 | 0.00 | 35 | 1019.7 |
| 20260905164401 | 72 | 2 | 5.2 | 13.9 | 0.00 | 0.15 | 0.00 | 35 | 1019.5 |
| 20260905163404 | 73 | 323 | 5.2 | 14.8 | 0.00 | 0.15 | 0.00 | 34 | 1019.4 |
| 20260905162402 | 75 | 323 | 5.2 | 10.4 | 0.00 | 0.15 | 0.00 | 34 | 1019.3 |
| 20260905161404 | 76 | 312 | 6.1 | 13.9 | 0.00 | 0.15 | 0.00 | 33 | 1019.1 |
| 20260905160406 | 77 | 306 | 6.1 | 14.8 | 0.00 | 0.15 | 0.00 | 32 | 1019.1 |
| 20260905155408 | 79 | 320 | 6.1 | 22.6 | 0.00 | 0.15 | 0.00 | 31 | 1018.9 |
| 20260905154410 | 82 | 315 | 7.0 | 13.9 | 0.00 | 0.15 | 0.00 | 30 | 1018.9 |
| 20260905153412 | 86 | 322 | 4.3 | 11.3 | 0.00 | 0.15 | 0.00 | 28 | 1018.9 |
| 20260905152413 | 91 | 333 | 3.5 | 9.6 | 0.00 | 0.15 | 0.00 | 26 | 1018.9 |
| 20260905151413 | 94 | 356 | 5.2 | 15.6 | 0.00 | 0.15 | 0.00 | 25 | 1018.9 |
| 20260905150412 | 95 | 326 | 6.1 | 13.9 | 0.00 | 0.15 | 0.00 | 25 | 1018.9 |
| 20260905145414 | 95 | 307 | 7.0 | 13.9 | 0.00 | 0.15 | 0.00 | 25 | 1018.8 |
| 20260905144416 | 96 | 287 | 5.2 | 9.6 | 0.00 | 0.15 | 0.00 | 24 | 1018.9 |
| 20260905143416 | 95 | 337 | 5.2 | 13.9 | 0.00 | 0.15 | 0.00 | 25 | 1018.9 |
| 20260905142418 | 94 | 283 | 8.7 | 18.2 | 0.00 | 0.15 | 0.00 | 25 | 1018.9 |
| 20260905141420 | 97 | 305 | 7.8 | 15.6 | 0.00 | 0.15 | 0.00 | 24 | 1018.8 |
| 20260905140422 | 97 | 321 | 10.4 | 18.2 | 0.00 | 0.15 | 0.00 | 24 | 1018.9 |
| 20260905135423 | 102 | 299 | 7.8 | 22.6 | 0.00 | 0.15 | 0.00 | 24 | 1019.0 |
| 20260905134425 | 104 | 318 | 7.8 | 17.4 | 0.00 | 0.15 | 0.00 | 24 | 1019.1 |
| 20260905133427 | 103 | 288 | 5.2 | 14.8 | 0.00 | 0.15 | 0.00 | 24 | 1019.1 |
| 20260905132429 | 104 | 283 | 8.7 | 20.9 | 0.00 | 0.15 | 0.00 | 24 | 1019.1 |
| 20260905131429 | 104 | 304 | 7.8 | 17.4 | 0.00 | 0.15 | 0.00 | 24 | 1019.1 |
| 20260905130429 | 102 | 289 | 7.8 | 14.8 | 0.00 | 0.15 | 0.00 | 25 | 1019.2 |
| 20260905125431 | 98 | 313 | 8.7 | 18.2 | 0.00 | 0.15 | 0.00 | 27 | 1019.3 |
| 20260905124432 | 92 | 310 | 8.7 | 16.5 | 0.00 | 0.15 | 0.00 | 29 | 1019.2 |
| 20260905123434 | 86 | 303 | 7.0 | 15.6 | 0.00 | 0.15 | 0.00 | 33 | 1019.3 |
| 20260905122436 | 86 | 335 | 7.0 | 18.2 | 0.00 | 0.15 | 0.00 | 34 | 1019.4 |
| 20260905121438 | 90 | 296 | 9.6 | 26.1 | 0.00 | 0.15 | 0.00 | 32 | 1019.4 |
| 20260905115441 | 91 | 303 | 9.6 | 19.1 | 0.00 | 0.15 | 0.00 | 34 | 1019.6 |
| 20260905114443 | 91 | 296 | 8.7 | 15.6 | 0.00 | 0.15 | 0.00 | 37 | 1019.5 |
| 20260905113445 | 93 | 313 | 7.8 | 15.6 | 0.00 | 0.15 | 0.00 | 39 | 1019.6 |
| 20260905112447 | 96 | 321 | 5.2 | 15.6 | 0.00 | 0.15 | 0.00 | 41 | 1019.7 |
| 20260905111449 | 98 | 320 | 7.0 | 13.9 | 0.00 | 0.15 | 0.00 | 41 | 1019.8 |
| 20260905110451 | 101 | 286 | 7.0 | 13.9 | 0.00 | 0.15 | 0.00 | 44 | 1019.8 |
| 20260905105452 | 99 | 297 | 7.0 | 15.6 | 0.00 | 0.15 | 0.00 | 51 | 1019.7 |
| 20260905104454 | 93 | 304 | 7.0 | 12.2 | 0.00 | 0.15 | 0.00 | 61 | 1019.7 |
| 20260905103455 | 90 | 306 | 6.1 | 10.4 | 0.00 | 0.15 | 0.00 | 66 | 1019.9 |
| 20260905102457 | 87 | 287 | 5.2 | 15.6 | 0.00 | 0.15 | 0.00 | 69 | 1019.7 |
| 20260905101459 | 85 | 294 | 6.1 | 14.8 | 0.00 | 0.15 | 0.00 | 67 | 1019.7 |
| 20260905100501 | 83 | 267 | 6.1 | 13.0 | 0.00 | 0.15 | 0.00 | 65 | 1019.8 |
| 20260905095502 | 89 | 265 | 7.8 | 13.9 | 0.00 | 0.15 | 0.00 | 61 | 1019.8 |
| 20260905094504 | 89 | 274 | 7.8 | 20.0 | 0.00 | 0.15 | 0.00 | 65 | 1019.7 |
| 20260905093506 | 83 | 302 | 5.2 | 10.4 | 0.00 | 0.15 | 0.00 | 69 | 1019.7 |
| 20260905092508 | 84 | 282 | 6.1 | 12.2 | 0.00 | 0.15 | 0.00 | 64 | 1019.8 |
| 20260905091510 | 86 | 282 | 6.1 | 13.9 | 0.00 | 0.15 | 0.00 | 65 | 1020.0 |
| 20260905090510 | 86 | 272 | 4.3 | 9.6 | 0.00 | 0.15 | 0.00 | 68 | 1019.9 |
| 20260905084513 | 87 | 303 | 5.2 | 11.3 | 0.00 | 0.15 | 0.00 | 63 | 1019.7 |
| 20260905083513 | 88 | 299 | 5.2 | 10.4 | 0.00 | 0.15 | 0.00 | 63 | 1019.9 |
| 20260905082516 | 86 | 274 | 4.3 | 8.7 | 0.00 | 0.15 | 0.00 | 66 | 1019.8 |
| 20260905081517 | 83 | 279 | 5.2 | 11.3 | 0.00 | 0.15 | 0.00 | 68 | 1019.7 |
| 20260905080519 | 80 | 264 | 5.2 | 15.6 | 0.00 | 0.15 | 0.00 | 70 | 1019.6 |
| 20260905075521 | 77 | 282 | 4.3 | 12.2 | 0.00 | 0.15 | 0.00 | 72 | 1019.4 |
| 20260905074522 | 74 | 278 | 8.7 | 14.8 | 0.00 | 0.15 | 0.00 | 74 | 1019.3 |
| 20260905073524 | 71 | 271 | 9.6 | 20.9 | 0.00 | 0.15 | 0.00 | 76 | 1019.2 |
| 20260905072526 | 69 | 288 | 4.3 | 12.2 | 0.00 | 0.15 | 0.00 | 79 | 1019.0 |
| 20260905071527 | 65 | 251 | 7.8 | 19.1 | 0.00 | 0.15 | 0.00 | 80 | 1018.9 |
| 20260905070529 | 62 | 262 | 8.7 | 15.6 | 0.00 | 0.15 | 0.00 | 82 | 1018.9 |
| 20260905065531 | 59 | 263 | 9.6 | 25.2 | 0.00 | 0.15 | 0.00 | 82 | 1018.9 |
| 20260905064533 | 59 | 273 | 11.3 | 22.6 | 0.00 | 0.15 | 0.00 | 83 | 1018.9 |
| 20260905063535 | 58 | 265 | 7.8 | 21.7 | 0.00 | 0.15 | 0.00 | 83 | 1018.9 |
| 20260905061538 | 58 | 277 | 4.3 | 8.7 | 0.00 | 0.15 | 0.00 | 82 | 1018.8 |
| 20260905060540 | 57 | 263 | 5.2 | 13.9 | 0.00 | 0.15 | 0.00 | 81 | 1018.6 |
| 20260905055542 | 57 | 254 | 4.3 | 9.6 | 0.00 | 0.15 | 0.00 | 81 | 1018.5 |
| 20260905054543 | 57 | 267 | 4.3 | 8.7 | 0.00 | 0.15 | 0.00 | 80 | 1018.3 |
| 20260905053543 | 57 | 272 | 4.3 | 8.7 | 0.00 | 0.15 | 0.00 | 80 | 1018.1 |
| 20260905052542 | 57 | 259 | 3.5 | 9.6 | 0.02 | 0.15 | 0.00 | 79 | 1018.0 |
| 20260905051544 | 57 | 278 | 3.5 | 10.4 | 0.02 | 0.15 | 0.00 | 79 | 1018.0 |
| 20260905050545 | 58 | 261 | 3.5 | 9.6 | 0.02 | 0.15 | 0.00 | 78 | 1017.7 |
| 20260905045546 | 58 | 226 | 1.7 | 7.0 | 0.04 | 0.15 | 0.00 | 77 | 1017.6 |
| 20260905044548 | 58 | 244 | 1.7 | 9.6 | 0.06 | 0.15 | 0.00 | 77 | 1017.4 |
| 20260905043550 | 58 | 177 | 0.0 | 1.7 | 0.06 | 0.15 | 0.00 | 76 | 1017.3 |
| 20260905042554 | 58 | 290 | 0.9 | 4.3 | 0.09 | 0.13 | 0.00 | 75 | 1017.3 |
| 20260905041555 | 58 | 0 | 1.7 | 7.0 | 0.11 | 0.13 | 0.00 | 75 | 1017.0 |
| 20260905040556 | 58 | 68 | 0.9 | 5.2 | 0.11 | 0.13 | 0.00 | 74 | 1016.6 |
| 20260905035612 | 58 | 234 | 1.7 | 7.0 | 0.11 | 0.11 | 0.00 | 72 | 1016.6 |
| 20260905034630 | 58 | 249 | 2.6 | 7.0 | 0.09 | 0.09 | 0.00 | 71 | 1016.7 |
| 20260905033632 | 58 | 268 | 3.5 | 9.6 | 0.09 | 0.09 | 0.00 | 69 | 1017.0 |
| 20260905032701 | 59 | 258 | 3.5 | 7.8 | 0.04 | 0.04 | 0.00 | 66 | 1017.1 |
| 20260905031714 | 59 | 269 | 3.5 | 8.7 | 0.02 | 0.02 | 0.00 | 64 | 1017.1 |
| 20260905030716 | 60 | 286 | 5.2 | 13.9 | 0.02 | 0.02 | 0.00 | 64 | 1017.0 |
| 20260905025721 | 60 | 271 | 9.6 | 18.2 | 0.00 | 0.00 | 0.00 | 63 | 1017.0 |
| 20260905024723 | 60 | 277 | 6.1 | 15.6 | 0.00 | 0.00 | 0.00 | 62 | 1016.7 |
| 20260905023724 | 60 | 294 | 6.1 | 13.0 | 0.00 | 0.00 | 0.00 | 62 | 1016.3 |
| 20260905022726 | 60 | 280 | 5.2 | 13.9 | 0.00 | 0.00 | 0.00 | 61 | 1016.2 |
| 20260905021729 | 60 | 271 | 4.3 | 12.2 | 0.00 | 0.00 | 0.00 | 61 | 1016.1 |
| 20260905020730 | 61 | 283 | 4.3 | 10.4 | 0.00 | 0.00 | 0.00 | 60 | 1015.8 |
| 20260905015731 | 61 | 272 | 6.1 | 15.6 | 0.00 | 0.00 | 0.00 | 60 | 1016.2 |
| 20260905014733 | 62 | 264 | 6.1 | 14.8 | 0.00 | 0.00 | 0.00 | 58 | 1016.0 |
| 20260905013734 | 64 | 305 | 7.0 | 18.2 | 0.00 | 0.00 | 0.00 | 57 | 1015.8 |
| 20260905012736 | 64 | 284 | 3.5 | 8.7 | 0.00 | 0.00 | 0.00 | 56 | 1015.5 |
| 20260905011738 | 65 | 299 | 7.0 | 17.4 | 0.00 | 0.00 | 0.00 | 55 | 1015.3 |
| 20260905010740 | 66 | 314 | 6.1 | 19.1 | 0.00 | 0.00 | 0.00 | 55 | 1015.5 |
| 20260905005742 | 66 | 288 | 3.5 | 7.8 | 0.00 | 0.00 | 0.00 | 55 | 1015.3 |
| 20260905004744 | 66 | 282 | 5.2 | 12.2 | 0.00 | 0.00 | 0.00 | 55 | 1015.5 |
| 20260905004002 | 66 | 302 | 6.1 | 10.4 | 0.00 | 0.00 | 0.00 | 55 | 1015.1 |
| 20260905003746 | 66 | 302 | 6.1 | 10.4 | 0.00 | 0.00 | 0.00 | 55 | 1015.1 |
| 20260905002747 | 67 | 266 | 3.5 | 20.9 | 0.00 | 0.00 | 0.00 | 55 | 1015.2 |
| 20260905001750 | 67 | 302 | 6.1 | 17.4 | 0.00 | 0.00 | 0.00 | 55 | 1015.0 |
| 20260905000748 | 67 | 279 | 7.8 | 13.0 | 0.00 | 0.00 | 0.00 | 55 | 1015.1 |
| 20260904235750 | 67 | 226 | 4.3 | 10.4 | 0.00 | 0.00 | 0.00 | 56 | 1014.9 |
| 20260904234752 | 67 | 343 | 7.8 | 19.1 | 0.00 | 0.00 | 0.00 | 56 | 1014.9 |
| 20260904233754 | 67 | 359 | 7.0 | 20.9 | 0.00 | 0.00 | 0.00 | 56 | 1015.0 |
| 20260904232755 | 67 | 346 | 6.1 | 17.4 | 0.00 | 0.00 | 0.00 | 56 | 1014.9 |
| 20260904231757 | 66 | 307 | 3.5 | 8.7 | 0.00 | 0.00 | 0.00 | 56 | 1014.8 |
| 20260904230759 | 66 | 31 | 5.2 | 15.6 | 0.00 | 0.00 | 0.00 | 56 | 1014.6 |
| 20260904225801 | 66 | 137 | 0.0 | 2.6 | 0.00 | 0.00 | 0.00 | 55 | 1014.2 |
| 20260904224803 | 66 | 54 | 1.7 | 7.8 | 0.00 | 0.00 | 0.00 | 56 | 1014.4 |
| 20260904223805 | 66 | 68 | 3.5 | 11.3 | 0.00 | 0.00 | 0.00 | 56 | 1013.6 |